Tracking 20712 objects as of 29-May-2020
HD Live streaming from Space Station
objects crossing your sky now

IRIDIUM 33 DEB

Track IRIDIUM 33 DEB now!
10-day predictions


NORAD ID: 35846
Int'l Code: 1997-051SW
Perigee: 769.2 km
Apogee: 794.6 km
Inclination: 86.4 °
Period: 100.3 minutes
Semi major axis: 7152 km
RCS: 0.0007 m2 (small)
Launch date: September 14, 1997
Source: United States (US)
Launch site: TYURATAM MISSILE AND SPACE COMPLEX (TTMTR)

Note: This is SATELLITE DEBRIS
aabbcc
Your satellite tracking list
Your tracking list is empty




NASA's NSSDC Master Catalog

Two Line Element Set (TLE):
1 35846U 97051SW  20148.45148288  .00000316  00000-0  10372-3 0  9999
2 35846  86.3829 194.3642 0017700 344.1393  15.9247 14.35089807566375
Source of the keplerian elements: AFSPC